Copper Mountain, CO

11:49 AM MDT on May 27, 2017 (GMT -0600)
Copper Mountain

Weather History for KCCU - August, 2013

Change the Weather History Date:

Thursday, August 22, 2013

  Actual Average Record
Temperature  
Mean Temperature 53 °F -  
Max Temperature 60 °F - 68 °F (2011)
Min Temperature 46 °F - 39 °F (2002)
Degree Days  
Heating Degree Days 12    
Month to date heating degree days  
Cooling Degree Days 0    
Month to date cooling degree days  
Growing Degree Days 3 (Base 50)    
Moisture  
Dew Point 40 °F    
Average Humidity 60    
Maximum Humidity 81    
Minimum Humidity 41    
Precipitation  
Precipitation 0.74 in - 0.74 in (2013)
Sea Level Pressure  
Sea Level Pressure 30.70 in    
Wind  
Wind Speed 10 mph (WSW)    
Max Wind Speed 25 mph    
Max Gust Speed 34 mph    
Visibility 9 miles    
Events Rain , Thunderstorm    
T = Trace of Precipitation, MM = Missing Value Source: NWS Daily Summary

Daily Weather History Graph

Daily Weather History Graph

Search for Another Location

Airport or City:

Trip Planner

Search our weather history database for the weather conditions in past years. The results will help you decide how hot, cold, wet, or windy it might be!

Date:

Astronomy

Aug. 22, 2013 Rise Set
Actual Time 6:23 AM MDT 7:50 PM MDT
Civil Twilight 5:55 AM MDT 8:18 PM MDT
Nautical Twilight 5:21 AM MDT 8:51 PM MDT
Astronomical Twilight 4:46 AM MDT 9:27 PM MDT
Moon 8:36 PM MDT (8/22) 8:14 AM MDT (8/22)
Length of Visible Light 14h 22m
Length of Day
13h 26m
Waning Gibbous, 96% of the Moon is Illuminated
Aug 22
Waning Gibbous
Aug 28
Last Quarter
Sep 5
New
Sep 12
First Quarter
Sep 19
Full

Hourly Weather History & Observations

Time (MDT) Temp. Windchill Dew Point Humidity Pressure Visibility Wind Dir Wind Speed Gust Speed Precip Events Conditions
12:14 AM 55.4 °F - 32.0 °F 41% 30.72 in 10.0 mi South 16.1 mph - N/A   Clear
12:34 AM 55.4 °F - 32.0 °F 41% 30.72 in 10.0 mi South 10.4 mph - N/A   Clear
12:54 AM 53.6 °F - 33.8 °F 47% 30.72 in 10.0 mi West 9.2 mph - N/A   Clear
1:14 AM 53.6 °F - 32.0 °F 44% 30.72 in 10.0 mi WSW 6.9 mph - N/A   Clear
1:34 AM 53.6 °F - 33.8 °F 47% 30.71 in 10.0 mi West 6.9 mph - N/A   Clear
1:54 AM 53.6 °F - 33.8 °F 47% 30.71 in 10.0 mi West 11.5 mph - N/A   Clear
2:14 AM 55.4 °F - 33.8 °F 44% 30.71 in 10.0 mi West 11.5 mph - N/A   Clear
2:34 AM 53.6 °F - 33.8 °F 47% 30.70 in 10.0 mi Calm Calm - N/A   Clear
2:54 AM 53.6 °F - 33.8 °F 47% 30.70 in 10.0 mi WSW 4.6 mph - N/A   Clear
3:14 AM 53.6 °F - 35.6 °F 51% 30.69 in 10.0 mi West 12.7 mph - N/A   Clear
3:34 AM 53.6 °F - 35.6 °F 51% 30.69 in 10.0 mi West 12.7 mph - N/A   Scattered Clouds
3:54 AM 53.6 °F - 33.8 °F 47% 30.69 in 10.0 mi West 13.8 mph - N/A   Mostly Cloudy
4:14 AM 53.6 °F - 35.6 °F 51% 30.69 in 10.0 mi West 12.7 mph - N/A   Overcast
4:34 AM 53.6 °F - 35.6 °F 51% 30.70 in 10.0 mi West 12.7 mph - N/A   Overcast
4:54 AM 53.6 °F - 33.8 °F 47% 30.70 in 10.0 mi West 12.7 mph - N/A   Overcast
5:14 AM 53.6 °F - 35.6 °F 51% 30.71 in 10.0 mi West 12.7 mph - N/A   Overcast
5:34 AM 53.6 °F - 35.6 °F 51% 30.71 in 10.0 mi West 11.5 mph - N/A Rain Light Rain
5:54 AM 53.6 °F - 37.4 °F 54% 30.72 in 10.0 mi West 12.7 mph - 0.01 in Rain Light Rain
6:14 AM 53.6 °F - 41.0 °F 62% 30.72 in 10.0 mi South 5.8 mph - N/A   Drizzle
6:34 AM 53.6 °F - 41.0 °F 62% 30.73 in 10.0 mi South 8.1 mph - N/A Rain Light Rain
6:54 AM 53.6 °F - 41.0 °F 62% 30.72 in 10.0 mi West 5.8 mph - N/A   Overcast
7:14 AM 53.6 °F - 41.0 °F 62% 30.72 in 10.0 mi West 4.6 mph - N/A   Overcast
7:34 AM 53.6 °F - 41.0 °F 62% 30.72 in 10.0 mi West 3.5 mph - N/A   Mostly Cloudy
7:54 AM 53.6 °F - 41.0 °F 62% 30.73 in 10.0 mi West 6.9 mph - N/A   Scattered Clouds
8:14 AM 53.6 °F - 42.8 °F 67% 30.74 in 10.0 mi SW 5.8 mph - N/A   Mostly Cloudy
8:34 AM 53.6 °F - 41.0 °F 62% 30.74 in 10.0 mi West 5.8 mph - N/A   Overcast
8:54 AM 53.6 °F - 39.2 °F 58% 30.73 in 10.0 mi WNW 5.8 mph - N/A   Overcast
9:14 AM 53.6 °F - 37.4 °F 54% 30.74 in 10.0 mi West 5.8 mph - N/A   Overcast
9:34 AM 53.6 °F - 37.4 °F 54% 30.74 in 10.0 mi West 5.8 mph - N/A   Overcast
9:54 AM 55.4 °F - 37.4 °F 51% 30.75 in 10.0 mi WSW 5.8 mph - N/A   Overcast
10:14 AM 53.6 °F - 41.0 °F 62% 30.75 in 10.0 mi West 9.2 mph - N/A   Light Drizzle
10:34 AM 53.6 °F - 37.4 °F 54% 30.75 in 10.0 mi WSW 4.6 mph - N/A   Overcast
10:54 AM 53.6 °F - 41.0 °F 62% 30.76 in 7.0 mi SW 5.8 mph 10.4 mph 0.02 in Rain Rain
11:14 AM 51.8 °F - 37.4 °F 58% 30.75 in 7.0 mi WNW 4.6 mph - 0.01 in Rain Light Rain
11:34 AM 53.6 °F - 46.4 °F 77% 30.75 in 10.0 mi South 8.1 mph - 0.02 in   Mostly Cloudy
11:54 AM 55.4 °F - 42.8 °F 63% 30.75 in 10.0 mi WSW 4.6 mph - 0.02 in   Mostly Cloudy
12:14 PM 59.0 °F - 42.8 °F 55% 30.73 in 10.0 mi SSE 6.9 mph - N/A   Scattered Clouds
12:34 PM 60.8 °F - 41.0 °F 48% 30.72 in 10.0 mi ESE 6.9 mph - N/A   Clear
12:54 PM 60.8 °F - 41.0 °F 48% 30.72 in 10.0 mi East 6.9 mph - N/A   Mostly Cloudy
1:14 PM 60.8 °F - 41.0 °F 48% 30.71 in 10.0 mi ESE 8.1 mph - N/A   Mostly Cloudy
1:34 PM 60.8 °F - 41.0 °F 48% 30.71 in 10.0 mi SE 6.9 mph - N/A   Mostly Cloudy
1:54 PM 59.0 °F - 37.4 °F 45% 30.71 in 10.0 mi SSE 6.9 mph 17.3 mph N/A   Overcast
2:14 PM 59.0 °F - 37.4 °F 45% 30.71 in 10.0 mi SSE 12.7 mph - N/A   Overcast
2:34 PM 59.0 °F - 41.0 °F 51% 30.71 in 10.0 mi WSW 4.6 mph - N/A Rain Light Rain
2:54 PM 53.6 °F - 41.0 °F 62% 30.70 in 10.0 mi WSW 19.6 mph 27.6 mph N/A Rain , Thunderstorm Thunderstorms and Rain
3:14 PM 53.6 °F - 42.8 °F 67% 30.71 in 5.0 mi SSE 6.9 mph 18.4 mph 0.15 in Rain , Thunderstorm Thunderstorms and Rain
3:34 PM 53.6 °F - 44.6 °F 72% 30.69 in 10.0 mi SSE 9.2 mph - 0.15 in Thunderstorm Thunderstorm
3:54 PM 53.6 °F - 44.6 °F 72% 30.69 in 10.0 mi SSE 11.5 mph - 0.15 in Thunderstorm Thunderstorm
4:14 PM 55.4 °F - 42.8 °F 63% 30.67 in 10.0 mi South 8.1 mph - N/A Thunderstorm Thunderstorm
4:34 PM 59.0 °F - 46.4 °F 63% 30.68 in 10.0 mi West 9.2 mph - N/A Thunderstorm Scattered Clouds
4:54 PM 55.4 °F - 46.4 °F 72% 30.68 in 10.0 mi West 10.4 mph - N/A Thunderstorm Thunderstorm
5:14 PM 59.0 °F - 42.8 °F 55% 30.66 in 10.0 mi West 13.8 mph - N/A   Scattered Clouds
5:34 PM 59.0 °F - 44.6 °F 59% 30.64 in 10.0 mi West 13.8 mph - N/A   Clear
5:54 PM 60.8 °F - 44.6 °F 55% 30.64 in 10.0 mi West 10.4 mph - N/A Thunderstorm Thunderstorm
6:14 PM 59.0 °F - 44.6 °F 59% 30.64 in 10.0 mi NW 4.6 mph - N/A Thunderstorm Thunderstorm
6:34 PM 53.6 °F - 42.8 °F 67% 30.67 in 3.0 mi South 25.3 mph 34.5 mph 0.07 in Rain , Thunderstorm Heavy Thunderstorms and Rain
6:54 PM 51.8 °F - 42.8 °F 71% 30.65 in 10.0 mi SW 4.6 mph - 0.19 in Rain , Thunderstorm Light Thunderstorms and Rain
7:14 PM 53.6 °F - 42.8 °F 67% 30.64 in 10.0 mi NW 4.6 mph - N/A Thunderstorm Thunderstorm
7:34 PM 53.6 °F - 41.0 °F 62% 30.65 in 10.0 mi West 15.0 mph - N/A Thunderstorm Thunderstorm
7:54 PM 53.6 °F - 42.8 °F 67% 30.66 in 10.0 mi NW 5.8 mph - N/A Thunderstorm Thunderstorm
8:14 PM 51.8 °F - 44.6 °F 76% 30.67 in 5.0 mi SSE 16.1 mph - 0.01 in Rain , Thunderstorm Rain
8:34 PM 51.8 °F - 41.0 °F 67% 30.68 in 1.5 mi SW 10.4 mph 20.7 mph 0.10 in Rain , Thunderstorm Rain
8:54 PM 51.8 °F - 41.0 °F 67% 30.68 in 2.0 mi SSW 6.9 mph 29.9 mph 0.17 in Rain , Thunderstorm Light Thunderstorms and Rain
9:14 PM 46.4 °F 40.1 °F 41.0 °F 81% 30.67 in 0.2 mi WNW 15.0 mph - 0.04 in Rain , Thunderstorm Thunderstorms and Rain
9:34 PM 46.4 °F 44.3 °F 41.0 °F 81% 30.69 in 7.0 mi South 4.6 mph - 0.08 in Rain , Thunderstorm Thunderstorms and Rain
9:54 PM 46.4 °F 41.1 °F 41.0 °F 81% 30.69 in 10.0 mi West 11.5 mph - 0.09 in Rain Light Rain
10:14 PM 46.4 °F 42.4 °F 41.0 °F 81% 30.69 in 1.8 mi South 8.1 mph - 0.07 in Rain , Thunderstorm Rain
10:34 PM 46.4 °F 41.9 °F 41.0 °F 81% 30.68 in 0.2 mi SSE 9.2 mph - 0.09 in Rain Light Rain
10:54 PM 46.4 °F 41.9 °F 41.0 °F 81% 30.69 in 10.0 mi SSE 9.2 mph - 0.09 in   Overcast
11:14 PM 46.4 °F 44.3 °F 41.0 °F 81% 30.68 in 10.0 mi West 4.6 mph - N/A   Overcast
11:34 PM 46.4 °F 43.5 °F 41.0 °F 81% 30.67 in 10.0 mi South 5.8 mph - N/A   Light Drizzle
11:54 PM 48.2 °F - 41.0 °F 76% 30.68 in 10.0 mi South 10.4 mph - N/A   Overcast